www.pogodaiklimat.ru

Погода и климат >> Архив погоды >> Россия >> Магаданская область >> Среднекан


ПОГОДА в Среднекане

  • Прогноз погоды в Среднекане
  • Монитор погоды в Среднекане

АРХИВ ПОГОДЫ в Среднекане

Время (UTC), дата Ветер
(напр.,м/с)
 
Видим.   Явления Облачность Т
(С)
Тd
(С)
f
(%)
Тe
(С)
Тes
(С)
Комфортность P
(гПа)
Po
(гПа)
Тmin
(С)
Tmax
(С)
R
(мм)
R24
(мм)
S
(см)
00 18.03 ЮЗ 1 20 км слаб. снег 10/0
[Ac trans Cs]
-25.9 -31.6 59 -30 -27 1017.6 981.5
03 18.03 ЮЗ 1 20 км слаб. снег 10/3 1000 м
[Sc Ac trans Cs]
-21.5 -25.9 68 -25 -23 1015.9 980.5
06 18.03 З 1 20 км слаб. снег 10/3 1000 м
[Sc Ac trans Cs]
-20.3 -24.8 67 -23 -23 1015.6 980.4
09 18.03 штиль 0 20 км слаб. снег 10/3 1000 м
[Sc Ac trans Cs]
-23.4 -26.2 78 -23 -23 1017.2 981.5 -19.9 0.4
12 18.03 ЮЗ 1 20 км слаб. снег 10/0
[Ac trans Cs]
-28.9 -31.6 77 -33 -33 опасность
обморожения
1019.3 982.8
15 18.03 ЮЗ 1 50 км {снег} 8/0
[Ac trans Ci fib]
-32.8 -36.2 71 -37 -37 опасность
обморожения
1020.6 983.4
18 18.03 штиль 0 50 км {снег} 10/0
[Ac trans Ci fib]
-31.8 -35.1 72 -32 -32 опасность
обморожения
1021.5 984.4
21 18.03 штиль 0 50 км 10/4 1000 м
[Sc Ac As]
-30.9 -34.4 71 -31 -31 опасность
обморожения
1022.3 985.3 -34.1 0.0 110
00 19.03 Ю 1 20 км слаб. снег 10/4 1000 м
[Sc As op]
-25.6 -29.0 73 -29 -29 1021.9 985.7
03 19.03 ЮЗ 1 20 км слаб. снег 10/5
[Sc As op]
-21.2 -25.0 71 -24 -24 1020.7 985.1
06 19.03 СЗ 1 20 км слаб. снег 10/3 1000 м
[Sc As op]
-18.7 -24.0 63 -22 -21 1020.0 984.8
09 19.03 С 1 20 км слаб. снег 10/3 1000 м
[Sc Ac As Cs]
-23.5 -27.5 70 -27 -27 1021.5 985.6 -18.5 1
12 19.03 штиль 0 50 км {снег} 10/0
[Ac trans Ci fib]
-26.6 -29.5 76 -27 -27 1022.6 986.2
15 19.03 штиль 0 50 км 10/0
[Ac trans Ci fib]
-29.8 -32.5 77 -30 -30 1023.2 986.4
18 19.03 Ю 1 50 км 10/0
[Ac trans Cs]
-30.9 -34.1 73 -35 -35 опасность
обморожения
1023.5 986.5
21 19.03 штиль 0 50 км 10/0
[Ac trans Ci fib]
-32.3 -35.8 71 -32 -32 опасность
обморожения
1024.5 987.2 -32.5 0.0 110
00 20.03 Ю 1 50 км 10/0
[Ac trans Ci fib]
-25.6 -28.8 74 -29 -26 1023.4 987.2
03 20.03 ЮЗ 1 50 км 10/0
[Ac trans Ci fib]
-20.1 -26.9 55 -23 -19 1021.8 986.4
06 20.03 Ю 1 50 км 10/0
[Ac trans Ci fib]
-17.9 -26.7 46 -21 -20 1021.1 986.0
09 20.03 В 1 50 км 10/0
[Ac trans Ci fib]
-23.4 -28.7 62 -27 -27 1022.9 987.0 -17.4
12 20.03 штиль 0 50 км 10/0
[Ac trans Ci fib]
-27.6 -30.2 78 -28 -28 1024.5 987.9
15 20.03 В 1 50 км 5/0
[Ci fib]
-31.2 -34.5 73 -35 -35 опасность
обморожения
1025.4 988.3
18 20.03 ЮВ 1 50 км 5/0
[Ci fib]
-33.1 -36.5 71 -38 -38 опасность
обморожения
1026.0 988.6
21 20.03 штиль 0 50 км 8/0
[Ci fib]
-32.4 -35.8 72 -32 -32 опасность
обморожения
1026.2 988.9 -34.6 110
00 21.03 ЮЗ 1 50 км 8/0
[Ci fib]
-27.2 -30.8 71 -31 -27 опасность
обморожения
1025.3 988.8
03 21.03 ЮЗ 1 50 км 10/0
[Cs]
-21.3 -28.6 52 -24 -20 1023.5 987.9
06 21.03 Ю 1 50 км 10/0
[Ac As Cs]
-18.3 -27.0 46 -21 -21 1022.5 987.3
09 21.03 В 2 50 км 10/0
[Ac trans Ci fib]
-22.7 -28.2 61 -29 -29 1023.5 987.7 -18.3
12 21.03 штиль 0 50 км 10/0
[Ac As Ci fib]
-22.9 -27.5 66 -23 -23 1023.8 988.0
15 21.03 ЮВ 1 50 км 10/0
[Ac As Cs]
-22.0 -26.5 67 -25 -25 1023.6 987.9
18 21.03 штиль 0 10 км слаб. снег 10/0
[As op]
-21.5 -24.5 77 -22 -22 1023.6 987.9
21 21.03 штиль 0 20 км слаб. снег 10/0
[As op]
-20.1 -23.4 75 -20 -20 1023.1 987.7 -23.8 0.3 110
00 22.03 ЮЗ 1 20 км слаб. снег 10/0
[Ac trans Cs]
-17.4 -22.2 66 -20 -17 1022.3 987.2
03 22.03 Ю 1 20 км слаб. снег 10/0
[As op]
-15.5 -22.3 56 -18 -17 1021.0 986.2
06 22.03 Ю 2 50 км {снег} 10/6 1000 м
[Sc Ac As]
-15.8 -22.1 58 -21 -21 1019.9 985.1
09 22.03 В 1 50 км 10/3 1000 м
[Sc Ac As]
-17.8 -22.7 65 -21 -21 1019.6 984.6 -14.3 0.2
12 22.03 В 1 50 км 10/0
[Ac As]
-20.1 -23.7 73 -23 -23 1019.0 983.7
15 22.03 Ю 1 50 км 10/0
[Ac As]
-20.9 -24.1 75 -24 -24 1017.6 982.3
18 22.03 В 1 50 км 10/0
[Ac As]
-20.9 -24.4 73 -24 -24 1016.2 980.9
21 22.03 В 1 50 км 10/0
[As trans]
-20.3 -24.3 70 -23 -23 1015.0 979.8 -21.0 110
00 23.03 ЮЗ 1 50 км 10/3 1000 м
[Sc Ac As]
-17.2 -22.2 65 -20 -19 1013.2 978.4
03 23.03 ЮЗ 1 50 км 10/3 1000 м
[Sc Cs]
-13.6 -21.7 50 -16 -13 1010.3 976.1
06 23.03 Ю 1 50 км 6/0
[Ci fib]
-12.5 -21.2 48 -15 -13 1008.4 974.5
09 23.03 В 2 50 км 8/0
[Ac trans Ci fib]
-17.5 -22.5 65 -23 -23 1008.4 973.8 -12.5
12 23.03 ЮВ 1 50 км 10/0
[Ac trans Ci fib]
-22.3 -25.1 78 -26 -26 1008.5 973.2
15 23.03 штиль 0 50 км 10/0
[Ac trans Ci fib]
-23.6 -26.3 78 -24 -24 1008.0 972.6
18 23.03 В 1 50 км 10/0
[Ac trans Ci fib]
-24.9 -27.6 78 -28 -28 1008.2 972.6
21 23.03 В 1 50 км 10/0
[Ac trans Ci fib]
-24.4 -27.4 76 -28 -27 1008.1 972.6 -25.7 110
00 24.03 ЮЗ 1 50 км 10/0
[Ac trans Ci fib]
-19.4 -24.4 64 -22 -19 1007.0 972.2
03 24.03 ЮЗ 1 50 км 10/0
[Ci fib]
-13.1 -21.1 51 -15 -11 1005.3 971.4
06 24.03 Ю 1 50 км 10/0
[Ci fib]
-10.2 -18.5 51 -12 -11 1004.8 971.3
09 24.03 В 2 50 км 10/0
[Ac trans Ci fib]
-16.8 -20.5 73 -22 -22 1006.5 972.1 -9.9
12 24.03 ЮВ 2 50 км 8/0
[Ci fib]
-21.3 -23.5 82 -27 -27 1006.5 972.1
15 24.03 ЮВ 1 50 км 10/0
[Ci fib]
-23.6 -25.6 84 -27 -27 1009.3 973.8
18 24.03 ЮВ 1 50 км 10/0
[Ci fib]
-27.0 -29.8 77 -31 -31 опасность
обморожения
1010.1 974.1
21 24.03 ЮВ 1 50 км 10/0
[Ac trans Ci fib]
-26.9 -29.9 76 -31 -30 опасность
обморожения
1010.5 974.6 -28.3 109

 

Местоположение метеостанции Среднекан (Магаданская область, Россия): широта 62.45 долгота 152.30 высота над уровнем моря 260 м.

В архиве по умолчанию представлена погода в Среднекане за последнюю неделю. Архивные данные за месяц целиком и за предыдущие месяцы, начиная с января 2011 года, Вы можете получить, выбрав интересующий диапазон дат из раскрывающегося списка и нажав кнопку "Ввод!".


*Определитесь, кто Вы:
робот инопланетянин человек

Внимание! Время в таблицах - всемирное. Для получения местного времени необходимо прибавить поправку, которая равна 11 ч.

Смотрите также архив погоды в соседних городах и на ближайших метеорологических станциях:

Погода в Сеймчане (Магаданская область, Россия) (51 км)
Погода в Совхозе Эльген (Магаданская область, Россия) (95 км)
Погода в Усть-Бохапче (Магаданская область, Россия) (96 км)
Погода в Ягодной (Магаданская область, Россия) (139 км)
Погода в Талой (Магаданская область, Россия) (147 км)
Погода на Озере Джека Лондона (Магаданская область, Россия) (151 км)
Погода в Омсукчане (Магаданская область, Россия) (180 км)
Погода в Балыгычане (Магаданская область, Россия) (186 км)
Погода в Усть-Омчуге (Магаданская область, Россия) (205 км)
Погода в Сусумане (Магаданская область, Россия) (218 км)

Пояснения к столбцам:

Ветер - указаны скорость ветра в м/с - средняя за 10 мин, порывы в срок и между сроками (в фигурных скобках) и направление, откуда дует ветер: С - северный, СВ - северо-восточный, В - восточный, ЮВ - юго-восточный, Ю - южный, ЮЗ - юго-западный, З - западный, СЗ - северо-западный.
Видимость - горизонтальная дальность видимости в метрах или километрах. При видимости от 1 до 10 км при отсутствии осадков обычно наблюдается дымка, при ухудшении видимости до 1 км и менее - туман. В сухую погоду видимость может ухудшаться дымом, пылью или мглою.
Явления - указаны атмосферные явления, наблюдавшиеся в срок или в последний час перед сроком; фигурными скобками обозначены явления, наблюдавшиеся между сроками (за 1-3 часа до срока); квадратными скобками обозначены град или гололедные отложения с указанием их диаметра в мм.
Облачность - указаны через наклонную черту общая и нижняя облачность в баллах и высота нижней границы облаков в метрах; квадратными скобками обозначены формы облаков: Ci - перистые, Cs - перисто-слоистые, Cc - перисто-кучевые, Ac - высококучевые, As - высокослоистые, Sc - слоисто-кучевые, Ns - слоисто-дождевые, Cu - кучевые, Cb - кучево-дождевые. Подробнее классификацию облаков см. в Атласе облаков (PDF).
T - Температура воздуха - температура, измеренная на высоте 2 м над землей.
Td - Температура точки росы - температура, при понижении до которой содержащийся в воздухе водяной пар достигнет насыщения.
f - Относительная влажность воздуха - влажноcть воздуха, измеренная на высоте 2 м над землей.
Te - Эффективная температура - температура, которую ощущает одетый по сезону человек в тени. Характеристика душности погоды. При расчете учитывается влияние влажности воздуха и скорости ветра на теплоощущения человека.
Tes - Эффективная температура на солнце - температура, которую ощущает человек, с поправкой на солнечный нагрев. Характеристика знойности погоды. Зависит от высоты солнца над горизонтом, облачности и скорости ветра. Ночью, в пасмурную погоду, а также при ветре 12 м/с и более поправка равна нулю.
P - Атмосферное давление - приведенное к уровню моря атмосферное давление.
Po - Атмосферное давление - измеренное на уровне метеостанции атмосферное давление.
Tmin - Минимальная температура - минимум температуры воздуха на высоте 2 м над землей.
Tmax - Максимальная температура - максимум температуры воздуха на высоте 2 м над землей.
R - Количество осадков - Количество выпавших осадков за период времени, мм. При наведении курсора мыши на число - период времени, за который выпало указанное количество осадков.
R24 - Количество осадков - Количество выпавших осадков за 24 часа, мм.
S - Снежный покров - Высота снежного покрова, см. При наведении курсора мыши на число - состояние снежного покрова и степень покрытия местности в баллах.